Location: Bullenkuhlen
(53.7689°N, 9.7495°E)
Time: 03:10:28
(UTC+00:00)

ATLAS 5 CENTAUR R/B - Pass Details

Date: 09 April 2020
Orbit: 543 x 1116 km, 63.4° (Epoch: 01 May)

Event Time Altitude Azimuth Distance (km) Brightness Sun altitude
Rises 20:00:12 0° 230° (SW) 2,769 5.1 -15.1°
Reaches altitude 10° 20:02:18 10° 231° (SW) 1,919 4.2 -15.3°
Maximum altitude 20:06:36 82° 318° (NW) 656 1.7 -15.8°
Drops below altitude 10° 20:11:35 10° 48° (NE) 2,212 4.3 -16.4°
Sets 20:14:09 0° 49° (NE) 3,234 5.2 -16.7°
